"Pseudo-MPEC" for ZKA6F32

Created 2018 May 20 16:18:27 UT using Find_Orb

Click here for an explanation of pseudo-MPECs

 
 Astrometry: 
     ZKA6F32  C2018 05 16.32343 15 28 29.46 -01 07 51.3          20.7 GUNEOCPG96
     ZKA6F32  C2018 05 16.33380 15 28 28.49 -01 07 55.3          21.1 GUNEOCPG96
     ZKA6F32  C2018 05 16.33897 15 28 27.97 -01 07 57.8          20.8 GUNEOCPG96
     ZKA6F32  C2018 05 16.38516 15 28 23.86 -01 08 18.7          21.5 GUNEOCPI52
     ZKA6F32  C2018 05 16.38803 15 28 23.59 -01 08 19.5          21.6 GUNEOCPI52
     ZKA6F32  C2018 05 16.39091 15 28 23.31 -01 08 20.9          20.7 GUNEOCPI52
     ZKA6F32  C2018 05 16.39535 15 28 22.97 -01 08 22.7          22.1 GUNEOCPI52
     ZKA6F32  C2018 05 16deAstrometry_M?Fy2jG78-9:p#$N5BU+ZLFia_cT#(m+:*4*QKvH01
     ZKA6F32  C2018 05 168?k.vo]1klq%=nZWh`\1bPoP4V08OU!KJ8]o^Ttqi6NF%.`;skhSH01
     ZKA6F32  C2018 05 16%BciZ8E5cIM?e.mhZ\X.]7pwRiC1-SpFgbEW%H^AJ45lHKJ0.b`:H01
     ZKA6F32  C2018 05 16o`8Gn3=nU%92*Jd]tredacted;Srf!x72`S8Fmb,_B-.0J?)p+h2H01
     ZKA6F32 |C2018 05 17U,oP_B;t-'Z`s'.5gGXuUByXa]NlK:G1cwK+nf%!G:@A$0bKh]'0807
     ZKA6F32 |C2018 05 177_qtgcy[d0Db[*0!ce#'wx+-aWOx8_5Q0/MbS7swS.[cdEO@V=!J807
     ZKA6F32 |C2018 05 17My:e8P94OggOt7^Uy3v!C9V9rfq3Qd=mf0[fH];gW-Aob@\^AZRx807
     ZKA6F32  C2018 05 17.26164 15 27 07.08 -01 14 50.0          21.2 GUNEOCPI52
     ZKA6F32  C2018 05 17.26495 15 27 06.78 -01 14 51.0          21.7 GUNEOCPI52
     ZKA6F32  C2018 05 17.26826 15 27 06.48 -01 14 53.2          21.8 GUNEOCPI52
     ZKA6F32  C2018 05 17.27158 15 27 06.18 -01 14 54.6          21.6 GUNEOCPI52
     ZKA6F32  C2018 05 18.33536 15 25 32.21 -01 23 02.9          22.0 GUNEOCPG96
     ZKA6F32  C2018 05 18.33758 15 25 32.04 -01 23 03.7          21.1 GUNEOCPG96
     ZKA6F32  C2018 05 18.33984 15 25 31.77 -01 23 05.5          21.6 GUNEOCPG96
     ZKA6F32  C2018 05 18.34207 15 25 31.70 -01 23 04.5          21.5 GUNEOCPG96
     ZKA6F32  C2018 05 20sJJ:A]E+T9LeNhQw%G6T_,p%B/;RPe#jsee`:5Fo(r4W:?.?fL/tH01
     ZKA6F32  C2018 05 20e;kj8TD:owjZT4tHJ@=,l+c,Kq%kw5fb*1,BeQ]4('n6B^@cVLUaH01
     ZKA6F32  C2018 05 20jbf;AX9VxUa/b]NmtbO0erRI8oYKu.gaJbs=?qrZZZ=b'8$VnhAfH01
     ZKA6F32  C2018 05 20AEXjXv;S+\o/EhL:DRNYok:aoq/^luYk-IJ*?#iULxToJL/NEOCPH01

Station data:
(807) Cerro Tololo Observatory, La Serena  (S30.169136 W70.805900)  Chile.
   Observers M. Holman, J. Kavelaars, T. Grav, W. Fraser. Measurer M. Holman.
   4-m Blanco reflector + CCD.
(G96) Mt. Lemmon Survey  (N32.442754 W110.788720)  US/Arizona.  Observers E.
   J. Christensen, A. R. Gibbs, A. D. Grauer, R. E. Hill, J. A. Johnson, R.
   A. Kowalski, S. M. Larson, F. C. Shelly. 1.5-m reflector + CCD.
(H01) Magdalena Ridge Observatory, Socorro  (N33.985151 W107.189200)  US/New
   Mexico.  Observers W. H. Ryan, E. V. Ryan. Measurer W. H. Ryan. 2.4-m
   f/8.9 reflector + CCD.
(I52) Steward Observatory, Mt. Lemmon Station  (N32.442547 W110.788920)
   US/Arizona.

Orbital elements:  ZKA6F32
   Perihelion 2019 Feb 2.237837 +/- 2.59 TT =  5:42:29 (JD 2458516.737837)
Epoch 2018 May 20.0 TT = JDT 2458258.5                        AutoNEOCP
M 319.01700 +/- 1.9                 (J2000 ecliptic)
n   0.15870252 +/- 0.00684          Peri.  264.13980 +/- 0.43
a   3.37867810 +/- 0.097            Node    63.18146 +/- 0.33
e   0.5052842 +/- 0.0134            Incl.   44.86864 +/- 0.9
P   6.21                   H 17.8   G  0.15   U  9.4  
q 1.67148532 +/- 0.00959    Q 5.08587088 +/- 0.185
From 26 observations 2018 May 16-20; mean residual 0".39
Residuals in arcseconds: 
180516 G96  1.3+  .20-    180516 H01  .18-  .01-    180518 G96  .17-  .32-    
180516 G96  .61+  .37+    180516 H01  .23-  .01+    180518 G96  .29+  .09-    
180516 G96  .27-  .15+    180517 807  .17-  .18-    180518 G96  .71-  .84-    
180516 I52  .07-  .38-    180517 807  .04-  .08+    180518 G96  1.3+  1.2+    
180516 I52  .28-  .08+    180517 807  .03+  .02+    180520 H01  .02+  .03+    
180516 I52  .63-  .05-    180517 I52  .09-  .02-    180520 H01  .05-  .11+    
180516 I52  .20+  .11+    180517 I52  .14-  .48+    180520 H01  .00   .02-    
180516 H01  .25-  .03-    180517 I52  .18-  .22-    180520 H01  .10-  .10-    
180516 H01  .28-  .12-    180517 I52  .21-  .12-    

Ephemerides (geocentric):
Date (UTC) HH   RA              Dec         delta   r     elong  mag " sig PA
---- -- -- --  ------------   ------------  ------ ------ -----  --- ---- ---
2018 05 20 16  15 22 05.452   -01 41 37.66  1.7545 2.7296 160.6 21.7  .20 160
2018 05 20 17  15 22 01.745   -01 41 58.24  1.7543 2.7294 160.6 21.7  .21 160
2018 05 20 18  15 21 58.038   -01 42 18.83  1.7541 2.7292 160.5 21.7  .22 160
2018 05 20 19  15 21 54.331   -01 42 39.45  1.7540 2.7290 160.5 21.7  .24 159
2018 05 20 20  15 21 50.623   -01 43 00.09  1.7538 2.7287 160.5 21.7  .25 159
2018 05 20 21  15 21 46.916   -01 43 20.75  1.7537 2.7285 160.5 21.7  .27 159
2018 05 20 22  15 21 43.208   -01 43 41.43  1.7535 2.7283 160.4 21.7  .28 159
2018 05 20 23  15 21 39.500   -01 44 02.13  1.7534 2.7281 160.4 21.7  .30 158
2018 05 21 00  15 21 35.791   -01 44 22.86  1.7532 2.7278 160.4 21.7  .31 158
2018 05 21 01  15 21 32.083   -01 44 43.60  1.7531 2.7276 160.4 21.7  .33 158
2018 05 21 02  15 21 28.374   -01 45 04.36  1.7529 2.7274 160.4 21.7  .34 158
2018 05 21 03  15 21 24.665   -01 45 25.15  1.7528 2.7272 160.3 21.7  .36 158
2018 05 21 04  15 21 20.956   -01 45 45.95  1.7526 2.7269 160.3 21.7  .38 157
2018 05 21 05  15 21 17.247   -01 46 06.78  1.7525 2.7267 160.3 21.7  .39 157
2018 05 21 06  15 21 13.538   -01 46 27.63  1.7523 2.7265 160.3 21.7  .41 157
2018 05 21 07  15 21 09.828   -01 46 48.50  1.7522 2.7263 160.2 21.7  .43 157
2018 05 21 08  15 21 06.118   -01 47 09.39  1.7521 2.7260 160.2 21.7  .44 157
2018 05 21 09  15 21 02.408   -01 47 30.30  1.7519 2.7258 160.2 21.7  .46 157
2018 05 21 10  15 20 58.698   -01 47 51.23  1.7518 2.7256 160.2 21.7  .48 156
2018 05 21 11  15 20 54.988   -01 48 12.18  1.7516 2.7254 160.2 21.7  .50 156
2018 05 21 12  15 20 51.278   -01 48 33.15  1.7515 2.7251 160.1 21.7  .51 156
2018 05 21 13  15 20 47.567   -01 48 54.14  1.7513 2.7249 160.1 21.7  .53 156
2018 05 21 14  15 20 43.857   -01 49 15.15  1.7512 2.7247 160.1 21.7  .55 156
2018 05 21 15  15 20 40.146   -01 49 36.19  1.7511 2.7245 160.1 21.7  .57 156
2018 05 21 16  15 20 36.435   -01 49 57.24  1.7509 2.7242 160.0 21.7  .59 156
2018 05 21 17  15 20 32.724   -01 50 18.32  1.7508 2.7240 160.0 21.7  .61 156
2018 05 21 18  15 20 29.013   -01 50 39.41  1.7506 2.7238 160.0 21.7  .63 155
2018 05 21 19  15 20 25.302   -01 51 00.53  1.7505 2.7236 160.0 21.7  .65 155
2018 05 21 20  15 20 21.591   -01 51 21.67  1.7504 2.7233 159.9 21.7  .67 155
2018 05 21 21  15 20 17.879   -01 51 42.83  1.7502 2.7231 159.9 21.7  .69 155
2018 05 21 22  15 20 14.168   -01 52 04.01  1.7501 2.7229 159.9 21.7  .71 155
2018 05 21 23  15 20 10.457   -01 52 25.21  1.7499 2.7227 159.9 21.7  .73 155
2018 05 22 00  15 20 06.745   -01 52 46.43  1.7498 2.7224 159.8 21.7  .75 155
2018 05 22 01  15 20 03.033   -01 53 07.67  1.7497 2.7222 159.8 21.7  .78 155
2018 05 22 02  15 19 59.322   -01 53 28.93  1.7495 2.7220 159.8 21.7  .80 154
2018 05 22 03  15 19 55.610   -01 53 50.21  1.7494 2.7218 159.8 21.7  .82 154
2018 05 22 04  15 19 51.898   -01 54 11.51  1.7493 2.7215 159.7 21.7  .84 154
2018 05 22 05  15 19 48.186   -01 54 32.83  1.7491 2.7213 159.7 21.7  .86 154
2018 05 22 06  15 19 44.474   -01 54 54.18  1.7490 2.7211 159.7 21.7  .89 154
2018 05 22 07  15 19 40.762   -01 55 15.54  1.7489 2.7208 159.7 21.7  .91 154
2018 05 22 08  15 19 37.050   -01 55 36.93  1.7487 2.7206 159.6 21.7  .93 154
2018 05 22 09  15 19 33.338   -01 55 58.33  1.7486 2.7204 159.6 21.7  .96 154
2018 05 22 10  15 19 29.626   -01 56 19.76  1.7485 2.7202 159.6 21.7  .98 154
2018 05 22 11  15 19 25.914   -01 56 41.20  1.7483 2.7199 159.6 21.7  1.0 154
2018 05 22 12  15 19 22.202   -01 57 02.67  1.7482 2.7197 159.5 21.7  1.0 153
2018 05 22 13  15 19 18.490   -01 57 24.16  1.7481 2.7195 159.5 21.7  1.1 153
2018 05 22 14  15 19 14.778   -01 57 45.67  1.7479 2.7193 159.5 21.7  1.1 153
2018 05 22 15  15 19 11.066   -01 58 07.19  1.7478 2.7190 159.5 21.7  1.1 153